Wind_Speed
22 21 21 20 19 20 19 17 16 16 16 16 15 15 15 14 14 14 14 13 13 13 13 14 14 14 13 12 12 12 11 11 12 11 11 9 8 11 12 9 8 7
22 21 20 19 19 19 19 17 16 16 16 15 15 14 15 15 15 14 14 13 13 14 13 13 14 13 13 12 12 12 11 11 11 11 11 9 9 10 11 9 9 10
22 20 18 19 18 19 19 18 17 16 15 15 15 15 15 15 15 15 14 13 13 13 12 12 13 13 13 12 12 11 11 10 10 11 11 10 10 10 10 10 10 11
22 20 18 18 18 18 18 18 17 17 16 15 15 15 15 16 16 16 15 13 13 13 13 12 12 13 13 13 13 12 11 10 10 10 10 10 10 9 9 10 10 10
22 21 19 19 18 18 17 18 17 17 17 16 16 15 16 16 16 16 15 13 13 13 13 14 13 13 13 13 13 13 12 11 11 11 11 10 10 9 9 11 10 8
23 22 21 20 19 18 18 18 17 17 17 17 16 15 15 16 16 15 14 13 13 13 14 15 14 13 15 14 14 14 13 13 13 11 10 9 9 9 9 11 11 11
24 23 22 21 19 19 18 18 18 18 17 17 16 15 15 15 16 16 15 14 14 13 14 15 14 13 15 15 14 14 14 14 14 13 10 9 9 9 10 11 12 13
23 23 22 21 20 20 19 18 18 18 17 17 17 15 15 15 16 16 16 15 15 15 15 14 13 13 14 15 14 14 14 14 14 13 12 10 9 9 10 12 12 12
23 23 22 22 21 20 19 19 18 17 16 17 16 14 14 16 16 15 15 15 15 17 17 14 12 11 11 12 13 13 13 13 13 12 10 9 9 9 10 11 12 12
23 22 22 22 22 20 19 19 18 16 16 17 15 13 13 14 15 14 14 15 16 18 18 16 14 12 9 10 11 12 12 12 12 12 11 11 10 9 9 10 11 11
23 22 22 22 22 21 19 17 16 15 16 17 16 15 13 12 13 14 15 15 16 16 16 15 14 13 12 12 11 11 11 11 12 13 13 12 11 9 9 9 9 9
23 23 23 23 23 22 20 18 17 16 16 18 18 17 16 14 14 14 14 14 14 13 15 15 14 14 14 14 12 12 12 12 12 12 13 13 12 11 10 9 9 8
24 23 23 23 23 23 22 21 21 20 19 18 19 20 19 18 16 15 14 14 13 13 14 15 16 17 16 16 16 15 15 13 12 12 13 13 13 12 11 11 10 9
25 23 22 22 23 23 22 22 22 21 20 19 20 21 22 21 18 16 16 15 16 16 15 15 17 18 19 18 17 16 16 15 14 13 13 12 12 12 11 10 10 10
23 22 21 21 21 22 22 22 20 20 20 19 18 21 23 23 21 19 19 18 18 18 17 16 16 16 17 17 17 16 16 16 16 14 14 13 13 12 11 11 11 10
21 20 20 20 20 20 20 21 20 19 19 18 17 18 21 22 22 22 22 21 19 18 16 16 16 16 16 16 15 15 15 16 16 15 13 13 13 13 12 11 10 11
22 20 19 19 20 20 20 21 21 21 20 19 17 17 17 18 19 21 23 22 20 18 17 17 17 16 15 15 15 15 15 15 15 14 13 12 11 11 10 9 8 10
24 22 21 20 21 21 22 21 21 22 22 22 20 18 18 18 18 19 21 23 22 20 19 19 18 16 15 15 15 15 15 15 14 14 14 11 9 9 10 9 9 10
26 24 23 22 22 23 23 23 23 23 24 23 21 20 21 21 20 19 20 23 24 22 21 20 17 15 15 15 14 14 14 15 15 15 15 13 11 11 12 12 12 12
27 26 25 24 25 25 26 25 24 24 24 25 23 21 21 23 23 21 21 22 23 22 22 21 19 18 17 15 14 14 14 15 17 17 15 15 14 14 14 14 13 13
29 29 28 26 26 27 28 28 26 24 23 24 24 22 22 22 24 25 23 23 23 23 24 23 22 20 19 17 16 15 15 16 18 17 17 17 17 16 17 16 15 15
30 29 28 27 26 26 28 28 27 25 22 21 22 23 22 23 24 26 26 25 25 25 26 25 24 22 20 18 17 16 16 17 18 18 18 18 18 18 19 18 17 16
30 29 28 27 27 27 28 28 28 27 25 23 22 22 23 23 25 26 26 25 25 25 26 25 24 22 21 20 20 18 18 19 20 20 20 20 20 21 20 19 18 18
30 30 30 31 30 31 30 29 29 29 28 27 26 24 24 24 25 26 27 26 25 25 25 24 23 23 22 22 22 20 20 20 21 21 21 21 22 22 22 21 20 19
29 30 33 33 31 31 32 31 32 32 31 31 31 30 28 28 28 28 29 28 27 26 26 25 25 24 22 22 22 22 21 22 22 23 23 23 23 23 23 23 22 21
30 32 34 33 30 29 31 33 35 35 35 35 36 35 34 34 34 33 32 31 30 29 28 28 28 27 26 25 24 24 23 23 24 25 24 24 24 24 23 22 22 22
Wind_Direction
208 208 207 210 212 212 212 214 211 207 202 199 202 203 198 194 193 193 193 191 193 192 185 183 187 186 183 180 182 184 184 190 200 201 201 203 199 197 194 189 189 194
207 207 207 210 211 210 211 213 212 208 205 203 205 204 200 197 196 195 196 195 194 194 190 189 192 191 190 189 186 185 186 191 197 200 201 198 195 199 203 208 211 208
205 204 203 208 210 207 208 212 212 210 208 205 203 203 201 200 197 195 197 200 198 197 194 194 197 198 200 199 196 194 194 198 200 200 199 196 198 203 208 216 215 209
203 202 200 203 205 203 205 210 211 209 208 205 203 202 202 202 199 195 198 202 204 204 203 201 202 204 206 203 203 204 203 206 208 205 203 199 200 206 207 207 204 204
203 203 201 201 202 201 204 209 209 208 209 206 202 201 203 203 200 199 201 202 206 211 209 206 206 209 212 210 210 211 207 209 213 212 211 206 200 204 208 206 204 209
205 204 203 203 203 203 206 209 208 208 210 209 204 201 206 209 209 210 210 207 209 215 211 206 208 213 215 214 214 214 210 210 216 216 216 213 206 206 214 215 212 213
206 205 204 204 204 205 207 208 209 210 211 211 211 210 210 214 218 221 222 221 219 223 219 209 207 214 218 214 211 212 209 209 215 218 217 220 221 220 223 227 224 221
207 206 205 205 207 208 208 209 211 211 210 211 213 216 217 218 220 221 224 228 229 230 229 218 210 214 220 217 211 213 215 213 218 224 221 219 229 232 230 236 240 238
208 208 206 206 208 209 208 209 212 211 211 211 210 214 220 221 222 222 223 229 230 228 227 223 213 211 220 222 213 213 220 221 225 231 226 222 232 235 232 238 244 245
207 208 207 207 207 205 205 209 212 211 211 210 208 214 223 225 228 232 232 231 225 221 223 224 215 209 222 234 222 215 220 225 230 234 231 232 238 238 238 241 240 242
207 208 208 208 206 202 203 207 208 206 208 209 211 218 227 230 231 233 234 230 222 217 218 220 218 219 226 236 236 229 225 224 227 232 235 238 240 241 242 239 236 240
207 207 208 210 209 204 204 207 207 206 207 207 212 223 229 230 231 232 232 230 225 220 217 216 221 228 230 236 244 243 236 228 224 227 233 239 244 246 247 245 242 239
209 207 208 210 211 208 205 206 209 212 211 209 214 222 227 226 226 230 233 233 231 230 229 226 229 234 235 239 244 243 240 235 231 231 232 236 242 244 247 250 247 239
212 210 210 209 211 212 208 206 210 213 214 215 217 220 224 225 224 226 231 234 233 234 236 236 236 237 236 238 240 237 234 234 235 236 234 235 238 238 240 244 244 243
213 214 214 211 210 210 208 208 213 217 217 219 220 219 222 224 224 226 230 232 232 231 234 238 239 237 234 234 235 232 230 234 238 240 240 240 241 239 239 239 241 245
210 212 212 210 209 209 207 208 213 220 222 224 224 222 223 224 225 229 232 231 230 228 231 236 238 237 235 233 234 232 231 235 239 242 245 247 248 247 245 244 245 246
209 206 204 205 207 207 208 209 212 218 225 229 230 227 227 227 228 231 232 232 233 231 230 232 235 236 236 234 233 234 234 236 240 244 249 253 254 249 242 235 235 238
208 206 205 206 209 210 212 214 216 219 223 228 231 231 231 230 228 229 231 231 233 233 231 233 235 236 235 235 236 236 236 238 240 243 244 243 240 235 227 218 217 227
209 209 210 211 213 214 217 221 222 224 225 227 228 230 232 233 230 229 229 228 229 230 231 235 237 237 236 237 238 238 239 240 238 238 239 234 229 231 230 224 223 228
209 210 213 215 217 217 220 224 226 228 228 228 227 226 229 231 230 230 229 227 227 229 233 237 238 237 238 239 239 240 242 241 238 236 237 236 234 238 242 241 240 240
212 213 216 219 220 220 222 226 229 231 231 230 227 225 228 230 229 230 231 230 231 233 235 238 237 237 238 237 237 239 241 241 238 234 236 241 242 243 249 253 253 250
214 217 220 224 225 224 224 227 231 232 230 226 223 224 228 230 229 230 233 235 235 235 235 236 235 237 239 237 234 236 238 240 239 236 237 241 245 247 251 255 258 256
215 219 222 226 228 226 226 228 231 232 229 225 223 223 226 228 228 230 232 233 232 231 230 231 231 234 239 240 239 238 239 240 240 240 240 242 245 248 252 256 259 259
224 227 229 229 229 227 228 232 232 233 234 233 231 230 228 227 227 227 229 229 229 229 229 231 233 237 240 242 242 240 240 241 241 242 243 244 246 250 254 256 258 259
231 235 237 237 235 231 231 234 235 235 235 236 236 238 237 236 234 233 234 236 237 237 238 239 241 242 243 244 244 243 241 241 243 244 245 246 248 250 252 254 256 256
233 236 239 241 243 239 235 235 235 235 232 229 232 236 240 241 241 241 242 243 244 244 245 245 246 246 246 247 248 247 243 241 241 244 246 248 249 250 251 253 254 255
Height
1587 1589 1590 1591 1592 1593 1594 1594 1595 1595 1596 1596 1597 1598 1598 1599 1600 1600 1601 1601 1602 1602 1603 1603 1604 1604 1605 1605 1606 1606 1607 1607 1608 1608 1609 1609 1610 1610 1610 1610 1610 1610
1586 1588 1589 1590 1591 1592 1593 1594 1595 1595 1596 1596 1597 1598 1598 1599 1600 1600 1601 1601 1602 1602 1603 1603 1603 1604 1604 1605 1605 1606 1606 1607 1607 1608 1608 1609 1609 1609 1610 1610 1610 1609
1585 1587 1588 1589 1590 1591 1593 1594 1595 1595 1596 1596 1597 1597 1598 1599 1599 1600 1601 1601 1602 1602 1603 1603 1603 1604 1604 1605 1605 1605 1606 1607 1607 1607 1608 1608 1608 1609 1609 1609 1609 1609
1584 1585 1586 1588 1589 1591 1592 1593 1594 1595 1596 1596 1597 1597 1598 1598 1599 1600 1600 1601 1601 1602 1602 1603 1603 1604 1604 1604 1605 1605 1606 1606 1607 1607 1607 1607 1607 1608 1608 1608 1608 1608
1582 1584 1585 1587 1588 1590 1591 1592 1593 1594 1595 1596 1597 1597 1598 1598 1599 1599 1600 1601 1601 1602 1602 1603 1603 1603 1604 1604 1605 1605 1605 1606 1606 1606 1607 1607 1607 1607 1607 1607 1607 1607
1581 1582 1584 1585 1587 1588 1590 1591 1592 1594 1594 1596 1596 1597 1598 1598 1599 1599 1599 1600 1601 1601 1602 1602 1603 1603 1603 1604 1604 1605 1605 1605 1606 1606 1606 1606 1606 1606 1606 1607 1606 1606
1580 1581 1582 1584 1585 1587 1588 1590 1591 1592 1594 1595 1596 1596 1597 1598 1598 1598 1599 1600 1600 1601 1601 1602 1602 1602 1603 1603 1604 1604 1604 1605 1605 1605 1605 1605 1605 1606 1606 1606 1606 1606
1579 1580 1581 1583 1584 1585 1587 1588 1590 1591 1592 1594 1595 1596 1596 1597 1598 1598 1599 1599 1599 1600 1601 1601 1602 1602 1603 1603 1603 1604 1604 1604 1604 1604 1605 1605 1605 1605 1605 1605 1605 1605
1578 1579 1580 1581 1582 1584 1585 1587 1588 1590 1591 1592 1593 1595 1595 1596 1597 1597 1598 1598 1599 1599 1600 1600 1601 1601 1602 1602 1603 1603 1603 1604 1604 1604 1604 1604 1604 1604 1604 1604 1604 1604
1577 1578 1579 1580 1581 1583 1584 1585 1587 1588 1590 1591 1592 1593 1594 1595 1596 1596 1597 1597 1598 1598 1598 1599 1600 1600 1601 1601 1602 1602 1602 1603 1603 1603 1603 1603 1603 1603 1603 1604 1603 1603
1575 1576 1578 1579 1580 1582 1583 1584 1586 1587 1588 1589 1590 1592 1593 1594 1594 1595 1596 1596 1597 1597 1597 1598 1599 1599 1600 1600 1601 1601 1601 1602 1602 1602 1602 1602 1602 1603 1603 1603 1603 1603
1573 1574 1576 1577 1579 1580 1582 1583 1584 1585 1587 1588 1589 1590 1591 1592 1593 1594 1594 1595 1596 1596 1597 1597 1598 1599 1599 1599 1600 1600 1600 1601 1601 1601 1601 1601 1601 1601 1602 1602 1602 1601
1570 1572 1574 1576 1577 1579 1580 1581 1582 1583 1585 1586 1587 1588 1589 1591 1592 1593 1593 1594 1594 1595 1596 1596 1597 1598 1598 1598 1599 1599 1599 1599 1599 1600 1600 1600 1600 1600 1600 1600 1600 1600
1567 1569 1571 1574 1575 1577 1579 1579 1580 1581 1583 1584 1585 1586 1587 1588 1589 1590 1591 1592 1593 1594 1594 1595 1596 1596 1597 1597 1598 1598 1598 1598 1598 1598 1599 1599 1599 1599 1599 1599 1599 1599
1565 1567 1569 1571 1573 1575 1577 1578 1579 1580 1581 1582 1583 1584 1585 1586 1587 1588 1589 1590 1591 1592 1593 1594 1594 1595 1595 1596 1596 1596 1597 1597 1597 1597 1598 1598 1598 1598 1598 1597 1597 1598
1563 1565 1567 1569 1571 1572 1574 1576 1577 1578 1579 1580 1581 1582 1584 1585 1586 1586 1587 1588 1589 1590 1591 1592 1592 1593 1593 1594 1594 1595 1595 1596 1596 1597 1597 1597 1597 1596 1596 1596 1596 1596
1561 1564 1565 1567 1568 1569 1571 1573 1575 1576 1577 1578 1579 1581 1582 1583 1584 1584 1585 1586 1587 1588 1589 1590 1590 1591 1591 1592 1593 1593 1594 1594 1595 1596 1596 1596 1596 1595 1595 1595 1595 1594
1560 1561 1563 1564 1565 1567 1569 1571 1572 1574 1575 1576 1577 1579 1580 1580 1581 1582 1583 1584 1585 1586 1587 1587 1588 1589 1589 1590 1591 1591 1592 1593 1593 1594 1594 1595 1595 1594 1594 1594 1593 1593
1558 1559 1560 1562 1563 1565 1567 1569 1570 1572 1573 1574 1576 1577 1577 1578 1579 1580 1581 1582 1582 1583 1584 1585 1586 1587 1588 1588 1589 1589 1590 1591 1591 1591 1592 1592 1592 1593 1593 1592 1592 1592
1556 1557 1558 1560 1561 1563 1565 1566 1568 1570 1571 1572 1573 1574 1575 1576 1577 1578 1579 1580 1581 1581 1582 1583 1584 1585 1586 1587 1587 1588 1588 1589 1589 1589 1590 1590 1590 1591 1591 1591 1591 1590
1555 1556 1557 1558 1559 1561 1563 1564 1566 1568 1569 1570 1571 1572 1573 1574 1575 1576 1576 1578 1579 1579 1580 1581 1582 1583 1584 1585 1585 1586 1586 1586 1587 1588 1588 1588 1588 1588 1589 1589 1589 1589
1553 1555 1555 1556 1557 1559 1560 1562 1564 1566 1567 1568 1569 1570 1571 1572 1573 1573 1574 1575 1576 1577 1578 1579 1580 1581 1581 1582 1583 1584 1584 1584 1584 1585 1586 1585 1585 1586 1586 1587 1587 1587
1551 1553 1553 1555 1556 1556 1557 1560 1562 1564 1564 1566 1567 1568 1568 1569 1570 1571 1572 1573 1573 1574 1575 1576 1577 1578 1579 1580 1580 1581 1582 1582 1582 1582 1583 1583 1583 1583 1584 1584 1584 1584
1549 1550 1551 1551 1551 1552 1554 1557 1559 1560 1562 1563 1564 1565 1566 1566 1567 1568 1569 1570 1571 1571 1572 1573 1574 1575 1576 1577 1577 1578 1579 1579 1579 1580 1580 1580 1580 1581 1581 1581 1581 1581
1547 1547 1547 1546 1545 1548 1553 1555 1555 1557 1559 1560 1561 1562 1563 1563 1564 1565 1565 1566 1567 1568 1569 1570 1571 1571 1572 1573 1574 1575 1576 1576 1576 1577 1577 1577 1577 1578 1578 1578 1579 1579
1543 1543 1543 1542 1542 1545 1550 1551 1551 1553 1554 1555 1557 1558 1559 1559 1560 1561 1562 1563 1564 1565 1566 1567 1567 1568 1569 1570 1572 1572 1572 1573 1573 1573 1573 1574 1574 1574 1575 1576 1576 1577